Home > Weather > Ratingen > Past weeks

Flag for Germany Weather for the Past 2 Weeks in Ratingen, North Rhine-Westphalia, Germany

Now
43 °F

Passing clouds.


Feels Like: 38 °F
Forecast: 38 / 64 °F
Wind: 8 mph from North

Location: Duesseldorf

Current Time: May 1, 2016 at 5:30:04 AM

Latest Report: May 1, 2016 at 4:20 AM


Visibility: N/A

Pressure: 30.21 "Hg

Humidity: 87%

Dew Point: 39 °F

Location of RatingenLocation

Historic Weather in Ratingen — Graph

°F

Ratingen Temperature Yesterday

Maximum temperature yesterday: 50 °F (at 2:50 PM)
Minimum temperature yesterday: 43 °F (at 4:20 AM)
Average temperature yesterday: 46 °F

High & Low Weather Summary for the Past Weeks

 TemperatureHumidityPressure
High68 °F (Apr 21, 3:50 PM)100% (Apr 18, 12:20 AM)30.48 "Hg (Apr 18, 12:20 AM)
Low32 °F (Apr 18, 5:20 AM)34% (Apr 20, 4:50 PM)29.47 "Hg (Apr 16, 5:20 AM)
Average46 °F73%29.97 "Hg
* Reported Apr 16 4:20 AM — May 1 4:20 AM, Ratingen, Weather by CustomWeather, © 2016

Note: Actual official high and low records may vary slightly from our data, if they occured in-between our weather recording intervals... More about our weather records

Advertising

Ratingen Weather History for the Previous 24 Hours

Scroll right to see more
 ConditionsComfort  
Time TempWeatherWind HumidityBarometerVisibility
4:20 AM
Sun, May 1
43 °FPassing clouds.8 mph87%30.21 "HgN/A
3:50 AM43 °FClear.9 mph87%30.21 "Hg10 mi
3:20 AM43 °FClear.10 mph87%30.21 "Hg10 mi
2:50 AM43 °FClear.10 mph87%30.21 "Hg10 mi
2:20 AM43 °FClear.9 mph81%30.21 "Hg10 mi
1:50 AM43 °FPassing clouds.10 mph81%30.21 "HgN/A
1:20 AM45 °FPassing clouds.12 mph76%30.21 "HgN/A
12:50 AM45 °FPassing clouds.12 mph76%30.18 "HgN/A
12:20 AM45 °FPassing clouds.12 mph81%30.18 "HgN/A
11:50 PM
Sat, Apr 30
46 °FClear.10 mph76%30.18 "Hg10 mi
11:20 PM46 °FClear.10 mph76%30.18 "Hg10 mi
10:50 PM46 °FPassing clouds.10 mph76%30.18 "HgN/A
10:20 PM46 °FPartly cloudy.6 mph87%30.18 "HgN/A
9:50 PM46 °FBroken clouds.6 mph87%30.15 "HgN/A
9:20 PM46 °FPartly sunny.5 mph87%30.15 "HgN/A
8:50 PM46 °FBroken clouds.7 mph82%30.15 "HgN/A
8:20 PM46 °FPartly sunny.6 mph87%30.12 "HgN/A
7:50 PM46 °FPartly sunny.5 mph87%30.12 "HgN/A
7:20 PM46 °FLight rain. Partly sunny.3 mph87%30.12 "HgN/A
6:50 PM46 °FLight rain. Broken clouds.2 mph87%30.12 "HgN/A
6:20 PM46 °FPartly sunny.2 mph82%30.12 "HgN/A
5:50 PM46 °FPartly sunny.3 mph82%30.12 "HgN/A
5:20 PM46 °FPartly sunny.2 mph82%30.12 "HgN/A
4:50 PM46 °FPartly sunny.9 mph82%30.09 "HgN/A
4:20 PM46 °FLight rain. Partly sunny.6 mph87%30.09 "HgN/A
3:50 PM48 °FLight rain. Partly sunny.7 mph66%30.09 "HgN/A
3:20 PM50 °FBroken clouds.1 mph71%30.09 "HgN/A
2:50 PM50 °FLight rain. Broken clouds.5 mph76%30.09 "HgN/A
2:20 PM48 °FLight rain. Broken clouds.3 mph76%30.09 "HgN/A
1:50 PM48 °FLight rain. Partly sunny.3 mph82%30.09 "HgN/A
1:20 PM48 °FLight rain. Partly sunny.2 mph71%30.09 "HgN/A
12:50 PM46 °FLight rain. Partly sunny.1 mph87%30.09 "HgN/A
12:20 PM46 °FLight rain. Partly sunny.1 mph82%30.09 "HgN/A
11:50 AM48 °FLight rain. Broken clouds.2 mph71%30.09 "HgN/A
11:20 AM48 °FLight rain. Scattered clouds.3 mph76%30.07 "HgN/A
10:20 AM46 °FLight rain. Broken clouds.5 mph82%30.07 "HgN/A
9:50 AM45 °FLight rain. More clouds than sun.3 mph81%30.07 "HgN/A
9:20 AM45 °FLight rain. Mostly cloudy.3 mph87%30.07 "HgN/A
8:50 AM45 °FLight rain. Mostly cloudy.3 mph87%30.07 "HgN/A
8:20 AM43 °FLight rain. Mostly cloudy.1 mph93%30.07 "HgN/A
7:50 AM43 °FLight rain. Mostly cloudy.2 mph100%30.04 "HgN/A
7:20 AM43 °FLight rain. Mostly cloudy.2 mph93%30.04 "HgN/A
6:50 AM43 °FLight rain. Mostly cloudy.1 mph100%30.04 "HgN/A
6:20 AM43 °FLight rain. Partly cloudy.1 mph100%30.01 "HgN/A
5:50 AM43 °FRain. Partly cloudy.2 mph100%30.01 "HgN/A
5:20 AM43 °FRain. Passing clouds.1 mph100%30.01 "HgN/A
Weather by CustomWeather, © 2016

See weather overviewHow to use our weather pages